Location: Newark
(45.7667°N, 11.5167°E)
Time: 07:24:32
(UTC+00:00)

Envisat - Pass Details

Date: 30 January 2020
Orbit: 764 x 766 km, 98.1° (Epoch: 20 February)

Event Time Altitude Azimuth Distance (km) Brightness Sun altitude
Rises 17:41:51 0° 189° (S) 3,219 6.5 -15.1°
Reaches altitude 10° 17:44:20 10° 198° (SSW) 2,297 5.8 -15.5°
Maximum altitude 17:48:57 35° 264° (W) 1,217 4.7 -16.3°
Drops below altitude 10° 17:53:37 10° 330° (NNW) 2,313 5.8 -17.1°
Sets 17:56:08 0° 339° (NNW) 3,243 6.4 -17.5°
